Location: Adrasan
(36.3319°N, 30.4314°E)
Time: 05:27:55
(UTC+00:00)

COSMO-SKYMED 1 - Pass Details

Date: 23 May 2024
Orbit: 621 x 623 km, 97.9° (Epoch: 23 June)

Event Time Altitude Azimuth Distance (km) Brightness Sun altitude
Rises 02:13:01 0° 129° (SE) 2,894 6.3 -6.6°
Reaches altitude 10° 02:15:46 10° 110° (ESE) 1,992 5.8 -6.2°
Maximum altitude 02:18:40 18° 68° (ENE) 1,544 6.0 -5.7°
Drops below altitude 10° 02:21:35 10° 25° (NNE) 2,000 6.2 -5.2°
Sets 02:24:21 0° 7° (N) 2,911 6.6 -4.7°
